EN

Hourly Weather Ostrovna

Today, 18 May, Tuesday

Time Temperature Precipitation Wind Pressure Humidity
00:00 +17°C° 0 mm 4 mps 737 mmHg 85%
01:00 +15°C° 0 mm 4 mps 737 mmHg 88%
02:00 +16°C° 0 mm 3 mps 737 mmHg 91%
03:00 +16°C° 0 mm 3 mps 737 mmHg 91%
04:00 +16°C° 0 mm 3 mps 737 mmHg 92%
05:00 +16°C° 0 mm 3 mps 737 mmHg 92%
06:00 +18°C° 0.2 mm 4 mps 737 mmHg 88%
07:00 +19°C° 0.2 mm 4 mps 737 mmHg 84%
08:00 +21°C° 0.2 mm 5 mps 737 mmHg 80%
09:00 +22°C° 0.1 mm 5 mps 737 mmHg 76%
10:00 +23°C° 0.1 mm 5 mps 737 mmHg 73%
11:00 +23°C° 0.1 mm 6 mps 737 mmHg 69%
12:00 +23°C° 0.2 mm 5 mps 737 mmHg 70%
13:00 +23°C° 0.2 mm 5 mps 737 mmHg 72%
14:00 +22°C° 0.2 mm 5 mps 736 mmHg 73%
15:00 +21°C° 0.5 mm 4 mps 736 mmHg 77%
16:00 +20°C° 0.5 mm 4 mps 736 mmHg 81%
17:00 +18°C° 0.5 mm 4 mps 736 mmHg 85%
18:00 +18°C° 0.5 mm 4 mps 737 mmHg 87%
19:00 +17°C° 0.5 mm 4 mps 737 mmHg 89%
20:00 +17°C° 0.5 mm 4 mps 737 mmHg 92%
21:00 +15°C° 0.4 mm 4 mps 737 mmHg 92%
22:00 +15°C° 0.4 mm 4 mps 737 mmHg 93%
23:00 +14°C° 0.4 mm 4 mps 737 mmHg 94%

Tomorrow, 19 May, Wednesday

Time Temperature Precipitation Wind Pressure Humidity
00:00 +14°C° 0 mm 4 mps 737 mmHg 95%
01:00 +13°C° 0 mm 3 mps 737 mmHg 95%
02:00 +13°C° 0 mm 3 mps 737 mmHg 96%
03:00 +13°C° 0 mm 3 mps 737 mmHg 95%
04:00 +13°C° 0 mm 3 mps 737 mmHg 95%
05:00 +13°C° 0 mm 3 mps 737 mmHg 95%
06:00 +15°C° 0.1 mm 4 mps 737 mmHg 90%
07:00 +17°C° 0.1 mm 4 mps 737 mmHg 86%
08:00 +18°C° 0.1 mm 4 mps 738 mmHg 81%
09:00 +19°C° 0.2 mm 4 mps 738 mmHg 77%
10:00 +20°C° 0.2 mm 4 mps 738 mmHg 73%
11:00 +21°C° 0.2 mm 5 mps 738 mmHg 69%
12:00 +21°C° 0.3 mm 4 mps 738 mmHg 70%
13:00 +20°C° 0.3 mm 4 mps 738 mmHg 71%
14:00 +20°C° 0.3 mm 4 mps 738 mmHg 72%
15:00 +20°C° 0.4 mm 3 mps 738 mmHg 74%
16:00 +20°C° 0.4 mm 3 mps 738 mmHg 77%
17:00 +20°C° 0.4 mm 3 mps 737 mmHg 80%
18:00 +18°C° 0.3 mm 3 mps 737 mmHg 84%
19:00 +17°C° 0.3 mm 3 mps 737 mmHg 88%
20:00 +16°C° 0.3 mm 2 mps 737 mmHg 91%
21:00 +15°C° 0 mm 2 mps 737 mmHg 92%
22:00 +15°C° 0 mm 2 mps 737 mmHg 93%
23:00 +14°C° 0 mm 1 mps 737 mmHg 94%

Day after tomorrow, 20 May, Thursday

Time Temperature Precipitation Wind Pressure Humidity
00:00 +14°C° 0.1 mm 2 mps 737 mmHg 95%
01:00 +14°C° 0.1 mm 2 mps 736 mmHg 96%
02:00 +14°C° 0.1 mm 2 mps 736 mmHg 97%
03:00 +14°C° 0.3 mm 2 mps 736 mmHg 97%
04:00 +14°C° 0.3 mm 2 mps 736 mmHg 97%
05:00 +13°C° 0.3 mm 2 mps 736 mmHg 97%
06:00 +14°C° 0.1 mm 2 mps 736 mmHg 93%
07:00 +14°C° 0.1 mm 3 mps 736 mmHg 89%
08:00 +14°C° 0.1 mm 3 mps 736 mmHg 86%
09:00 +15°C° 0.5 mm 4 mps 736 mmHg 84%
10:00 +15°C° 0.5 mm 5 mps 736 mmHg 82%
11:00 +16°C° 0.5 mm 5 mps 736 mmHg 80%
12:00 +16°C° 0.6 mm 5 mps 736 mmHg 78%
13:00 +16°C° 0.6 mm 5 mps 736 mmHg 77%
14:00 +17°C° 0.6 mm 6 mps 736 mmHg 76%
15:00 +16°C° 0.6 mm 6 mps 736 mmHg 80%
16:00 +15°C° 0.6 mm 6 mps 736 mmHg 85%
17:00 +14°C° 0.6 mm 6 mps 736 mmHg 89%
18:00 +13°C° 0 mm 6 mps 736 mmHg 90%
19:00 +11°C° 0 mm 6 mps 737 mmHg 90%
20:00 +9°C° 0 mm 6 mps 737 mmHg 91%
21:00 +9°C° 0 mm 6 mps 737 mmHg 91%
22:00 +8°C° 0 mm 7 mps 737 mmHg 91%
23:00 +8°C° 0 mm 7 mps 737 mmHg 90%

21 May, Friday

Time Temperature Precipitation Wind Pressure Humidity
00:00 +6°C° 0 mm 7 mps 737 mmHg 91%
01:00 +6°C° 0 mm 7 mps 737 mmHg 91%
02:00 +6°C° 0 mm 7 mps 737 mmHg 91%
03:00 +6°C° 0 mm 7 mps 737 mmHg 90%
04:00 +6°C° 0 mm 7 mps 737 mmHg 90%
05:00 +8°C° 0 mm 7 mps 738 mmHg 89%
06:00 +8°C° 0 mm 7 mps 738 mmHg 87%
07:00 +9°C° 0 mm 8 mps 738 mmHg 86%
08:00 +10°C° 0 mm 8 mps 738 mmHg 84%
09:00 +10°C° 0.1 mm 8 mps 739 mmHg 83%
10:00 +10°C° 0.1 mm 8 mps 739 mmHg 82%
11:00 +10°C° 0.1 mm 8 mps 740 mmHg 81%
12:00 +10°C° 0.1 mm 8 mps 740 mmHg 81%
13:00 +10°C° 0.1 mm 8 mps 741 mmHg 82%
14:00 +10°C° 0.1 mm 8 mps 741 mmHg 82%
15:00 +9°C° 0 mm 8 mps 742 mmHg 83%
16:00 +9°C° 0 mm 7 mps 742 mmHg 83%
17:00 +8°C° 0 mm 7 mps 743 mmHg 84%
18:00 +8°C° 0 mm 6 mps 743 mmHg 83%
19:00 +8°C° 0 mm 5 mps 744 mmHg 82%
20:00 +8°C° 0 mm 4 mps 744 mmHg 82%
21:00 +8°C° 0 mm 3 mps 744 mmHg 85%
22:00 +8°C° 0 mm 3 mps 744 mmHg 89%
23:00 +7°C° 0 mm 2 mps 744 mmHg 92%

22 May, Saturday

Time Temperature Precipitation Wind Pressure Humidity
00:00 +7°C° 0 mm 2 mps 745 mmHg 93%
01:00 +7°C° 0 mm 2 mps 745 mmHg 93%
02:00 +7°C° 0 mm 2 mps 745 mmHg 93%
03:00 +7°C° 0 mm 2 mps 745 mmHg 92%
04:00 +8°C° 0 mm 2 mps 745 mmHg 90%
05:00 +9°C° 0 mm 1 mps 745 mmHg 89%
06:00 +10°C° 0 mm 2 mps 745 mmHg 84%
07:00 +12°C° 0 mm 2 mps 746 mmHg 79%
08:00 +14°C° 0 mm 2 mps 746 mmHg 74%
09:00 +15°C° 0 mm 2 mps 746 mmHg 68%
10:00 +16°C° 0 mm 2 mps 746 mmHg 63%
11:00 +17°C° 0 mm 2 mps 746 mmHg 58%
12:00 +17°C° 0 mm 2 mps 746 mmHg 55%
13:00 +18°C° 0 mm 2 mps 746 mmHg 53%
14:00 +18°C° 0 mm 2 mps 745 mmHg 51%
15:00 +18°C° 0 mm 2 mps 745 mmHg 55%
16:00 +19°C° 0 mm 1 mps 745 mmHg 59%
17:00 +19°C° 0 mm 1 mps 745 mmHg 63%
18:00 +16°C° 0 mm 1 mps 745 mmHg 68%
19:00 +14°C° 0 mm 1 mps 746 mmHg 72%
20:00 +12°C° 0 mm 1 mps 746 mmHg 77%
21:00 +10°C° 0 mm 2 mps 746 mmHg 80%
22:00 +10°C° 0 mm 2 mps 746 mmHg 83%
23:00 +9°C° 0 mm 2 mps 746 mmHg 87%

23 May, Sunday

Time Temperature Precipitation Wind Pressure Humidity
00:00 +9°C° 0 mm 2 mps 746 mmHg 88%
01:00 +8°C° 0 mm 2 mps 747 mmHg 89%
02:00 +8°C° 0 mm 2 mps 747 mmHg 90%
03:00 +8°C° 0 mm 2 mps 747 mmHg 89%
04:00 +9°C° 0 mm 3 mps 747 mmHg 89%
05:00 +9°C° 0 mm 3 mps 747 mmHg 88%
06:00 +11°C° 0 mm 3 mps 747 mmHg 82%
07:00 +12°C° 0 mm 4 mps 747 mmHg 77%
08:00 +14°C° 0 mm 4 mps 747 mmHg 71%
09:00 +15°C° 0 mm 4 mps 747 mmHg 68%
10:00 +16°C° 0 mm 5 mps 746 mmHg 64%
11:00 +19°C° 0 mm 5 mps 746 mmHg 60%
12:00 +19°C° 0 mm 5 mps 746 mmHg 59%
13:00 +19°C° 0 mm 5 mps 746 mmHg 59%
14:00 +20°C° 0 mm 5 mps 745 mmHg 58%
15:00 +20°C° 0 mm 5 mps 745 mmHg 62%
16:00 +19°C° 0 mm 4 mps 745 mmHg 67%
17:00 +19°C° 0 mm 4 mps 745 mmHg 71%
18:00 +17°C° 0 mm 4 mps 745 mmHg 77%
19:00 +16°C° 0 mm 3 mps 745 mmHg 82%
20:00 +13°C° 0 mm 3 mps 745 mmHg 88%
21:00 +13°C° 0 mm 3 mps 745 mmHg 88%
22:00 +12°C° 0 mm 4 mps 744 mmHg 89%
23:00 +12°C° 0 mm 4 mps 744 mmHg 89%
Show more

We Need Your Consent

Meteoprog and our Service Providers may store and access personal data such as cookies, device identifiers or other similar technologies on your device and process such data to personalise content and ads, as well as provide social media features and to analyse the traffic.

  • Store and/or access information on your device

    Cookies, device identifiers or other information can be stored or accessed on your device for the purposes indicated above.

  • Personalised ads and content, ad and content measurement, audience insights, and products development

    Ads and content can be personalised based on a profile. More data can be added to better personalise ads and content. Ad and content performance can be measured. Insights about the audience who saw the ads and content can be derived. Such data can be used to develop or improve user’s experience, systems and software.

By clicking ‘I Agree’ you will allow the use of indicated cookies, device identifiers, web beacons or other similar technologies. Your settings can be changed in the browser on your device.

For certain purposes, legitimate interests may be relied on, rather than consent. You can read more about this in our Privacy and Cookie Policy.